Location: 3 Angels Observatory
(30.5437°N, 88.5068°W)
Time: 16:16:58
(UTC-06:00)

Amateur Radio Satellites - All Passes

Search period start: 02 December 2016 15:46
Search period end: 03 December 2016 15:46
Location: 3 Angels Observatory, 30.5437°N, 88.5068°W

Satellite Date Start Highest point End Downlink Frequencies (MHz)
Time Altitude Azimuth
AO-7 02 Dec 15:49:32 15:56:53 36° 260° (W) 16:04:20 29.400- 29.500
ITUPSAT 1 02 Dec 15:49:33 15:52:03 14° 293° (WNW) 15:54:32 437.325
JUGNU 02 Dec 15:54:45 15:59:30 25° 188° (S) 16:04:13 437.505
ISS 02 Dec 15:56:10 15:58:52 24° 128° (SE) 16:01:35 145.825
BEESAT 2 02 Dec 16:01:12 16:05:10 60° 245° (WSW) 16:09:06 435.950
GOMX 1 02 Dec 16:02:01 16:04:15 14° 67° (ENE) 16:06:31 467.674
BRITE-PL 02 Dec 16:03:35 16:07:25 37° 73° (ENE) 16:11:25 437.365/2234.400
RS-15 02 Dec 16:15:55 16:27:25 42° 52° (NE) 16:38:29 29.354- 29.394
Cubesat XI-IV 02 Dec 16:16:18 16:18:56 14° 65° (ENE) 16:21:34 437.490
LilacSat-2 02 Dec 16:24:48 16:26:06 11° 69° (ENE) 16:27:23 437.200
NOAA 15 02 Dec 16:26:38 16:30:22 20° 68° (ENE) 16:34:07 137.62
KKS-1 02 Dec 16:27:53 16:32:14 51° 285° (WNW) 16:36:33 437.445
DOVE 4 02 Dec 16:33:18 16:35:18 13° 66° (ENE) 16:37:20 437.250
HORYU 2 02 Dec 16:34:37 16:39:07 84° 77° (ENE) 16:43:37 437.375
STARS 02 Dec 16:45:05 16:49:30 75° 284° (WNW) 16:53:53 437.465
CUBESAT XI-V 02 Dec 16:56:29 17:01:09 83° 283° (WNW) 17:05:50 437.345
O/OREOS (USA 219) 02 Dec 17:02:48 17:06:42 27° 294° (WNW) 17:10:37 437.305
NOAA 18 02 Dec 17:04:27 17:09:07 29° 69° (ENE) 17:13:48 137.9125
Cosmos 2491 02 Dec 17:12:55 17:19:37 24° 73° (ENE) 17:26:16 435.465 / 435.565
SRMSAT 02 Dec 17:25:25 17:30:24 28° 183° (S) 17:35:24 437.500
CUTE-I 02 Dec 17:28:25 17:33:46 79° 76° (ENE) 17:39:09 437.470
ISS 02 Dec 17:32:42 17:35:18 22° 322° (NW) 17:37:56 145.825
YUBILEINY 02 Dec 17:37:44 17:42:19 16° 81° (E) 17:46:53 435.215
GOMX 1 02 Dec 17:37:47 17:41:51 40° 262° (W) 17:46:11 467.674
BRITE-PL 02 Dec 17:44:35 17:46:06 12° 267° (W) 17:47:38 437.365/2234.400
JUGNU 02 Dec 17:44:55 17:47:55 14° 197° (SSW) 17:50:56 437.505
AIST 2 02 Dec 17:53:01 17:57:04 43° 60° (ENE) 18:01:04 435.215
Cubesat XI-IV 02 Dec 17:53:08 17:58:26 59° 259° (W) 18:03:45 437.490
LilacSat-2 02 Dec 17:56:26 18:00:00 35° 262° (W) 18:03:34 437.200
CUTE 1.7 + AOD 2 02 Dec 18:00:03 18:02:14 14° 69° (ENE) 18:04:23 437.475
NOAA 15 02 Dec 18:04:59 18:09:50 38° 261° (W) 18:14:41 137.62
DOVE 4 02 Dec 18:07:59 18:12:23 50° 261° (W) 18:17:06 437.250
CANX-2 02 Dec 18:15:43 18:19:14 26° 73° (ENE) 18:22:43 2200.000
CINEMA 3 02 Dec 18:17:54 18:22:28 46° 74° (ENE) 18:27:12 145.822/145.860
RS-15 02 Dec 18:28:24 18:40:03 52° 251° (WSW) 18:51:14 29.354- 29.394
HO-68 02 Dec 18:29:40 18:36:32 52° 70° (ENE) 18:43:26 435.675
AAUSAT CUBESAT 2 02 Dec 18:42:48 18:44:59 14° 70° (ENE) 18:47:10 437.432
NOAA 18 02 Dec 18:44:53 18:49:36 29° 262° (W) 18:54:23 137.9125
SEEDS 02 Dec 18:49:06 18:52:57 36° 74° (ENE) 18:56:47 437.485
STRAND 1 02 Dec 18:57:54 19:02:54 57° 101° (E) 19:07:53 437.568
AIST 1 02 Dec 19:01:57 19:04:40 16° 88° (E) 19:07:22
CUBEBUG 2 02 Dec 19:02:51 19:07:06 34° 73° (ENE) 19:11:23 437.445
COMPASS 1 02 Dec 19:07:06 19:10:57 39° 74° (ENE) 19:14:48 437.405
Cosmos 2491 02 Dec 19:08:21 19:16:48 58° 269° (W) 19:25:15 435.465 / 435.565
ZACube-1 02 Dec 19:09:37 19:12:03 14° 69° (ENE) 19:14:28 437.345
Cosmos 2504 02 Dec 19:14:40 19:21:54 38° 87° (E) 19:29:33 435.465 / 435.565
SRMSAT 02 Dec 19:14:48 19:19:03 20° 193° (SSW) 19:23:18 437.500
FUNcube-1 02 Dec 19:19:06 19:22:01 17° 70° (ENE) 19:24:55 145.935
YUBILEINY 02 Dec 19:29:16 19:37:57 80° 276° (W) 19:46:43 435.215
AIST 2 02 Dec 19:33:32 19:35:05 12° 253° (WSW) 19:36:38 435.215
CUTE 1.7 + AOD 2 02 Dec 19:33:50 19:37:42 35° 262° (W) 19:41:35 437.475
CANX-2 02 Dec 19:52:02 19:55:00 18° 264° (W) 19:57:58 2200.000
UWE-3 02 Dec 19:53:12 19:57:52 82° 79° (E) 20:02:32 435.000/436.395/437.385
Oscar 11 02 Dec 19:53:39 19:57:40 39° 74° (ENE) 20:01:43 145.826/435.025
CINEMA 3 02 Dec 19:57:14 19:59:46 14° 268° (W) 20:02:21 145.822/145.860
PRISM 02 Dec 19:59:28 20:01:13 12° 95° (E) 20:02:58 437.425
DELFI C3 02 Dec 20:14:37 20:17:34 21° 72° (ENE) 20:20:33 145.870
AAUSAT CUBESAT 2 02 Dec 20:16:26 20:20:07 32° 262° (W) 20:23:50 437.432
HO-68 02 Dec 20:19:02 20:24:25 23° 264° (W) 20:29:51 435.675
SEEDS 02 Dec 20:26:55 20:28:42 12° 266° (W) 20:30:29 437.485
SO-50 02 Dec 20:27:59 20:32:47 81° 299° (WNW) 20:37:32 436.795
AIST 1 02 Dec 20:38:19 20:41:57 27° 281° (W) 20:45:38
STRAND 1 02 Dec 20:39:15 20:41:32 13° 294° (WNW) 20:43:49 437.568
CUBEBUG 2 02 Dec 20:40:25 20:43:42 18° 265° (W) 20:47:00 437.445
ZACube-1 02 Dec 20:43:35 20:47:55 42° 261° (W) 20:52:14 437.345
COMPASS 1 02 Dec 20:45:15 20:46:36 11° 267° (W) 20:47:55 437.405
FUNcube-1 02 Dec 20:53:46 20:57:55 34° 262° (W) 21:02:04 145.935
CUSAT 1 02 Dec 20:54:18 20:58:00 81° 262° (W) 21:02:52 437.405
UNISAT 6 02 Dec 20:57:22 20:58:57 12° 93° (E) 21:00:31 437.425
DANDE 02 Dec 21:03:49 21:05:51 17° 82° (E) 21:08:08 436.750
Cosmos 2504 02 Dec 21:07:48 21:15:06 37° 284° (WNW) 21:22:55 435.465 / 435.565
HUMSAT D 02 Dec 21:09:45 21:13:55 56° 76° (ENE) 21:18:03 437.325/437.525
TIGRISAT 02 Dec 21:26:44 21:30:25 26° 97° (E) 21:34:01 435.000
ANTELSAT 02 Dec 21:27:05 21:30:52 28° 97° (E) 21:34:35 437.575/2403.000
Oscar 11 02 Dec 21:32:04 21:33:54 12° 266° (W) 21:35:44 145.826/435.025
PRISM 02 Dec 21:32:45 21:36:34 37° 286° (WNW) 21:40:24 437.425
YUBILEINY 02 Dec 21:33:42 21:36:00 11° 293° (WNW) 21:38:19 435.215
PCSat 02 Dec 21:35:20 21:40:45 67° 64° (ENE) 21:46:07 145.827
DELFI C3 02 Dec 21:49:25 21:52:15 19° 264° (W) 21:55:06 145.870
JAS-2 02 Dec 21:59:31 21:59:59 10° 94° (E) 22:00:28 435.910
CUBEBUG 1 02 Dec 22:20:54 22:24:29 26° 72° (ENE) 22:28:07 437.445
VELOX 1 02 Dec 22:22:33 22:25:33 18° 69° (ENE) 22:28:35 145.980
QB50P2 02 Dec 22:25:49 22:27:42 13° 94° (E) 22:29:36 145.880/145.840
POLYITAN 1 02 Dec 22:26:41 22:28:20 12° 94° (E) 22:29:59 437.675
UNISAT 6 02 Dec 22:31:41 22:35:50 42° 286° (WNW) 22:39:53 437.425
QB50P1 02 Dec 22:39:50 22:42:45 18° 95° (E) 22:45:40 145.935-145.965
DUCHIFAT 1 02 Dec 22:46:57 22:49:55 19° 96° (E) 22:52:51 145.980
DX 1 02 Dec 22:48:25 22:51:27 19° 70° (ENE) 22:54:29 434.975-435.025
50 SAT 02 Dec 22:48:25 22:51:21 25° 74° (ENE) 22:54:18 437.505
ESTCUBE 1 02 Dec 22:57:43 23:02:07 60° 259° (W) 23:06:33 437.505/2401.250
POPSAT HIP 1 02 Dec 23:00:12 23:04:01 32° 98° (E) 23:07:48 437.405
UKube-1 02 Dec 23:02:51 23:06:00 20° 70° (ENE) 23:09:10 .
TIGRISAT 02 Dec 23:03:44 23:06:53 20° 290° (WNW) 23:09:59 435.000
ANTELSAT 02 Dec 23:04:19 23:07:19 18° 291° (WNW) 23:10:16 437.575/2403.000
AISAT 02 Dec 23:20:04 23:24:28 81° 260° (W) 23:28:54 437.250
PCSat 02 Dec 23:21:49 23:23:28 11° 257° (WSW) 23:25:07 145.827
SPROUT 02 Dec 23:22:11 23:26:25 60° 76° (ENE) 23:30:39 437.525
JAS-2 02 Dec 23:40:14 23:45:22 63° 285° (WNW) 23:50:44 435.910
NANOSAT C BR1 02 Dec 23:57:23 00:01:26 46° 285° (WNW) 00:05:26 145.865
CUBEBUG 1 02 Dec 23:57:34 00:00:42 19° 264° (W) 00:03:50 437.445
VELOX 1 02 Dec 23:57:56 00:01:45 29° 262° (W) 00:05:36 145.980
BUGSAT 1 02 Dec 23:58:16 00:02:21 51° 100° (E) 00:06:22 437.445
QB50P2 02 Dec 23:59:40 00:03:35 37° 286° (WNW) 00:07:28 145.880/145.840
POLYITAN 1 03 Dec 00:00:17 00:04:14 39° 286° (WNW) 00:08:09 437.675
ISS 03 Dec 00:04:27 00:07:18 26° 40° (NE) 00:10:06 145.825
GONETS M04 03 Dec 00:06:45 00:14:44 41° 88° (E) 00:22:40
QB50P1 03 Dec 00:14:54 00:18:27 26° 288° (WNW) 00:21:59 145.935-145.965
Cosmos 2499 03 Dec 00:17:21 00:25:19 54° 90° (E) 00:33:45 435.465 / 435.565
DUCHIFAT 1 03 Dec 00:22:02 00:25:30 25° 288° (WNW) 00:28:58 145.980
50 SAT 03 Dec 00:23:17 00:24:38 12° 265° (W) 00:25:59 437.505
DX 1 03 Dec 00:23:42 00:27:23 28° 262° (W) 00:31:07 434.975-435.025
Gurwin Techsat 1B 03 Dec 00:33:09 00:34:44 11° 93° (E) 00:36:20 435.225
PHONESAT 2.4 03 Dec 00:36:08 00:38:44 53° 148° (SSE) 00:41:20 2401.200-2431.200
POPSAT HIP 1 03 Dec 00:36:59 00:39:29 15° 291° (WNW) 00:41:57 437.405
UKube-1 03 Dec 00:38:17 00:41:50 25° 263° (W) 00:45:25 .
SWISSCUBE 03 Dec 00:43:22 00:46:12 16° 68° (ENE) 00:49:02 437.505
BEESAT 03 Dec 00:47:51 00:50:39 16° 68° (ENE) 00:53:27 436.000
TISAT 1 03 Dec 00:57:13 01:01:23 64° 258° (WSW) 01:05:37 437.305
Oscar 19 03 Dec 01:03:19 01:08:25 56° 101° (E) 01:13:31 437.125/150
AUBIESAT-1 03 Dec 01:05:46 01:09:19 33° 68° (ENE) 01:13:07 437.475
ITUPSAT 1 03 Dec 01:11:35 01:15:40 28° 71° (ENE) 01:19:44 437.325
M-CUBED/EXP-1 PRIME 03 Dec 01:14:35 01:18:20 56° 71° (ENE) 01:22:26 437.505
O/OREOS (USA 219) 03 Dec 01:39:51 01:42:37 16° 63° (ENE) 01:45:23 437.305
ISS 03 Dec 01:41:11 01:43:39 19° 233° (SW) 01:46:05 145.825
GONETS M04 03 Dec 02:03:45 02:11:27 34° 283° (WNW) 02:19:10
AO-7 03 Dec 02:06:10 02:11:23 18° 95° (E) 02:16:34 29.400- 29.500
Gurwin Techsat 1B 03 Dec 02:09:44 02:15:00 64° 285° (WNW) 02:20:14 435.225
AO-85 03 Dec 02:10:59 02:16:06 84° 115° (ESE) 02:20:51 145.980
Cosmos 2499 03 Dec 02:11:58 02:18:44 27° 287° (WNW) 02:25:50 435.465 / 435.565
PHONESAT 2.4 03 Dec 02:12:06 02:14:09 19° 342° (NNW) 02:16:11 2401.200-2431.200
SWISSCUBE 03 Dec 02:19:06 02:23:35 41° 260° (W) 02:28:06 437.505
BEESAT 03 Dec 02:23:32 02:28:02 41° 261° (W) 02:32:33 436.000
MOZHAYETS 4 03 Dec 02:24:07 02:28:22 37° 73° (ENE) 02:32:35
AUBIESAT-1 03 Dec 02:41:52 02:43:50 13° 263° (W) 02:45:54 437.475
Oscar 19 03 Dec 02:44:39 02:47:12 14° 294° (WNW) 02:49:44 437.125/150
ITUPSAT 1 03 Dec 02:49:42 02:53:23 22° 263° (W) 02:57:06 437.325
ITAMSAT 1 03 Dec 03:02:55 03:08:08 90° 159° (SSE) 03:13:17 435.822/435.867
O/OREOS (USA 219) 03 Dec 03:18:02 03:22:05 34° 256° (WSW) 03:26:06 437.305
KKS-1 03 Dec 03:19:50 03:24:15 70° 76° (ENE) 03:28:43 437.445
STARS 03 Dec 03:35:53 03:40:05 45° 74° (ENE) 03:44:18 437.465
PHONESAT 2.4 03 Dec 03:49:51 03:50:05 10° 358° (N) 03:50:19 2401.200-2431.200
CUBESAT XI-V 03 Dec 03:54:04 03:58:28 48° 75° (ENE) 04:02:53 437.345
AO-7 03 Dec 03:56:18 04:04:40 76° 288° (WNW) 04:13:00 29.400- 29.500
MOZHAYETS 4 03 Dec 04:02:55 04:05:34 15° 266° (W) 04:08:13
BRITE-PL 03 Dec 04:12:55 04:17:23 25° 96° (E) 04:21:58 437.365/2234.400
HORYU 2 03 Dec 04:31:45 04:35:21 24° 97° (E) 04:38:56 437.375
NOAA 15 03 Dec 04:48:58 04:50:28 11° 93° (E) 04:51:59 137.62
SO-50 03 Dec 05:05:47 05:09:02 19° 54° (NE) 05:12:16 436.795
STARS 03 Dec 05:15:07 05:16:35 11° 266° (W) 05:18:03 437.465
PHONESAT 2.4 03 Dec 05:24:21 05:26:04 15° 15° (NNE) 05:27:48 2401.200-2431.200
BEESAT 3 03 Dec 05:25:31 05:29:21 63° 297° (WNW) 05:33:15 437.485
NOAA 18 03 Dec 05:32:41 05:36:32 19° 96° (E) 05:40:22 137.9125
CUBESAT XI-V 03 Dec 05:34:32 05:36:01 11° 267° (W) 05:37:30 437.345
LilacSat-2 03 Dec 05:35:09 05:38:35 33° 98° (E) 05:41:59 437.200
GOMX 1 03 Dec 05:43:57 05:49:28 89° 103° (ESE) 05:54:56 467.674
YUBILEINY 03 Dec 05:46:48 05:54:57 40° 78° (ENE) 06:03:03 435.215
BEESAT 2 03 Dec 05:47:10 05:51:04 87° 297° (WNW) 05:55:02 435.950
BRITE-PL 03 Dec 05:50:54 05:55:44 34° 287° (WNW) 06:00:45 437.365/2234.400
CUTE-I 03 Dec 05:51:22 05:56:32 50° 100° (E) 06:01:40 437.470
AO-7 03 Dec 05:52:46 05:56:02 13° 305° (NW) 05:59:17 29.400- 29.500
Cosmos 2491 03 Dec 06:06:37 06:14:12 34° 87° (E) 06:21:45 435.465 / 435.565
HO-68 03 Dec 06:07:15 06:09:34 12° 92° (E) 06:11:52 435.675
STRAND 1 03 Dec 06:08:09 06:13:02 45° 73° (ENE) 06:17:54 437.568
HORYU 2 03 Dec 06:08:19 06:11:44 22° 290° (WNW) 06:15:07 437.375
DOVE 4 03 Dec 06:12:02 06:17:20 71° 101° (E) 06:22:27 437.250
Cubesat XI-IV 03 Dec 06:16:04 06:21:25 89° 103° (ESE) 06:26:44 437.490
CINEMA 3 03 Dec 06:19:41 06:22:48 17° 93° (E) 06:25:50 145.822/145.860
NOAA 15 03 Dec 06:25:20 06:30:33 64° 285° (WNW) 06:35:45 137.62
RS-15 03 Dec 06:31:33 06:42:08 44° 107° (ESE) 06:53:11 29.354- 29.394
SO-50 03 Dec 06:45:31 06:49:31 33° 248° (WSW) 06:53:29 436.795
AIST 1 03 Dec 06:50:23 06:54:31 39° 81° (E) 06:58:38
PHONESAT 2.4 03 Dec 06:58:57 07:01:36 88° 13° (NNE) 07:04:16 2401.200-2431.200
Cosmos 2504 03 Dec 07:06:26 07:15:09 64° 82° (E) 07:23:19 435.465 / 435.565
LilacSat-2 03 Dec 07:11:15 07:12:30 11° 291° (WNW) 07:13:44 437.200
NOAA 18 03 Dec 07:12:05 07:17:17 42° 289° (WNW) 07:22:26 137.9125
CUTE 1.7 + AOD 2 03 Dec 07:23:47 07:27:56 56° 101° (E) 07:32:03 437.475
CUTE-I 03 Dec 07:32:59 07:36:05 16° 294° (WNW) 07:39:12 437.470
CANX-2 03 Dec 07:41:02 07:45:14 71° 283° (WNW) 07:49:25 2200.000
YUBILEINY 03 Dec 07:43:45 07:51:29 36° 273° (W) 07:59:14 435.215
AIST 2 03 Dec 07:45:10 07:48:51 34° 112° (ESE) 07:52:37 435.215
Oscar 11 03 Dec 07:48:40 07:49:58 11° 93° (E) 07:51:15 145.826/435.025
STRAND 1 03 Dec 07:49:18 07:52:19 16° 265° (W) 07:55:21 437.568
UWE-3 03 Dec 07:49:27 07:52:55 24° 96° (E) 07:56:19 435.000/436.395/437.385
HO-68 03 Dec 07:50:39 07:57:53 88° 287° (WNW) 08:05:05 435.675
DOVE 4 03 Dec 07:52:44 07:54:16 11° 295° (WNW) 07:55:47 437.250
CINEMA 3 03 Dec 07:55:39 08:00:00 35° 287° (WNW) 08:04:09 145.822/145.860
Cosmos 2491 03 Dec 08:02:33 08:10:43 42° 282° (WNW) 08:18:54 435.465 / 435.565
AAUSAT CUBESAT 2 03 Dec 08:03:32 08:07:37 54° 100° (E) 08:11:40 437.432
SEEDS 03 Dec 08:13:36 08:17:38 49° 285° (WNW) 08:21:40 437.485
PRISM 03 Dec 08:15:58 08:19:59 67° 75° (ENE) 08:24:01 437.425
TIGRISAT 03 Dec 08:21:01 08:23:21 14° 68° (ENE) 08:25:40 435.000
ANTELSAT 03 Dec 08:21:18 08:23:54 15° 68° (ENE) 08:26:29 437.575/2403.000
AIST 1 03 Dec 08:29:59 08:31:40 12° 274° (W) 08:33:20
COMPASS 1 03 Dec 08:30:26 08:34:25 47° 285° (WNW) 08:38:24 437.405
CUBEBUG 2 03 Dec 08:35:43 08:39:58 49° 285° (WNW) 08:44:05 437.445
ZACube-1 03 Dec 08:37:31 08:41:40 56° 100° (E) 08:45:44 437.345
RS-15 03 Dec 08:43:14 08:54:20 48° 305° (NW) 09:06:03 29.354- 29.394
FUNcube-1 03 Dec 08:47:07 08:51:19 69° 101° (E) 08:55:26 145.935
HUMSAT D 03 Dec 09:00:24 09:02:20 13° 94° (E) 09:04:14 437.325/437.525
Cosmos 2504 03 Dec 09:01:36 09:07:36 21° 278° (W) 09:13:25 435.465 / 435.565
Oscar 11 03 Dec 09:22:09 09:26:14 43° 285° (WNW) 09:30:17 145.826/435.025
UNISAT 6 03 Dec 09:23:47 09:28:30 81° 76° (ENE) 09:33:11 437.425
AIST 2 03 Dec 09:24:53 09:27:24 16° 306° (NW) 09:29:58 435.215
UWE-3 03 Dec 09:26:02 09:29:11 20° 290° (WNW) 09:32:17 435.000/436.395/437.385
DELFI C3 03 Dec 09:30:48 09:34:46 77° 101° (ESE) 09:38:45 145.870
HO-68 03 Dec 09:41:34 09:44:34 13° 301° (WNW) 09:47:35 435.675
JAS-2 03 Dec 09:46:19 09:52:07 30° 71° (ENE) 09:57:21 435.910
POPSAT HIP 1 03 Dec 09:48:57 09:50:46 13° 68° (ENE) 09:52:36 437.405
CUSAT 1 03 Dec 09:52:38 09:56:18 37° 277° (W) 09:59:16 437.405
TIGRISAT 03 Dec 09:55:03 09:59:34 46° 261° (W) 10:04:06 435.000
ANTELSAT 03 Dec 09:55:44 10:00:10 43° 261° (W) 10:04:39 437.575/2403.000
DANDE 03 Dec 10:04:31 10:10:13 60° 97° (E) 10:14:29 436.750
JUGNU 03 Dec 10:16:37 10:18:54 12° 161° (SSE) 10:21:11 437.505
Cosmos 2499 03 Dec 10:19:31 10:22:47 12° 66° (ENE) 10:25:59 435.465 / 435.565
GONETS M04 03 Dec 10:26:29 10:30:29 14° 68° (ENE) 10:34:29
PCSat 03 Dec 10:29:47 10:33:31 19° 105° (ESE) 10:37:16 145.827
HUMSAT D 03 Dec 10:34:19 10:37:59 33° 286° (WNW) 10:41:37 437.325/437.525
NANOSAT C BR1 03 Dec 10:43:17 10:47:27 57° 76° (ENE) 10:51:39 145.865
BUGSAT 1 03 Dec 10:43:19 10:46:05 17° 70° (ENE) 10:48:54 437.445
QB50P2 03 Dec 10:45:53 10:50:09 74° 77° (ENE) 10:54:26 145.880/145.840
POLYITAN 1 03 Dec 10:46:30 10:50:46 70° 77° (ENE) 10:55:04 437.675
AO-85 03 Dec 10:50:05 10:51:50 13° 52° (NE) 10:53:35 145.980
ESTCUBE 1 03 Dec 10:55:43 11:00:00 43° 99° (E) 11:04:17 437.505/2401.250
QB50P1 03 Dec 11:00:37 11:04:53 77° 258° (WSW) 11:09:10 145.935-145.965
RS-15 03 Dec 11:05:58 11:11:03 13° 334° (NNW) 11:16:13 29.354- 29.394
DUCHIFAT 1 03 Dec 11:07:06 11:11:20 76° 258° (WSW) 11:15:36 145.980
SPROUT 03 Dec 11:14:51 11:17:29 16° 95° (E) 11:20:06 437.525
AISAT 03 Dec 11:16:05 11:19:59 29° 98° (E) 11:23:51 437.250
POPSAT HIP 1 03 Dec 11:22:05 11:26:07 41° 261° (W) 11:30:11 437.405
JAS-2 03 Dec 11:30:43 11:36:58 36° 260° (W) 11:42:38 435.910
Gurwin Techsat 1B 03 Dec 11:49:25 11:51:01 11° 64° (ENE) 11:52:38 435.225
CUBEBUG 1 03 Dec 11:50:10 11:54:35 69° 283° (WNW) 11:58:59 437.445
50 SAT 03 Dec 11:52:23 11:55:55 70° 101° (ESE) 11:59:27 437.505
VELOX 1 03 Dec 11:52:44 11:57:12 80° 101° (E) 12:01:40 145.980
JUGNU 03 Dec 12:02:44 12:07:21 23° 170° (S) 12:11:57 437.505
Cosmos 2499 03 Dec 12:08:33 12:17:10 86° 84° (E) 12:25:06 435.465 / 435.565
PCSat 03 Dec 12:11:25 12:16:32 42° 299° (WNW) 12:21:39 145.827
Oscar 19 03 Dec 12:14:39 12:19:29 45° 73° (ENE) 12:24:21 437.125/150
DX 1 03 Dec 12:16:32 12:20:56 77° 102° (ESE) 12:25:19 434.975-435.025
BUGSAT 1 03 Dec 12:17:34 12:21:11 28° 263° (W) 12:24:50 437.445
GONETS M04 03 Dec 12:19:33 12:28:18 90° 282° (WNW) 12:37:04
AO-85 03 Dec 12:28:46 12:32:23 37° 247° (WSW) 12:35:58 145.980
UKube-1 03 Dec 12:29:53 12:34:14 81° 102° (ESE) 12:38:33 .
ESTCUBE 1 03 Dec 12:34:12 12:36:23 13° 292° (WNW) 12:38:34 437.505/2401.250
TISAT 1 03 Dec 12:46:57 12:50:37 28° 98° (E) 12:54:15 437.305
SPROUT 03 Dec 12:49:37 12:53:24 31° 287° (WNW) 12:57:09 437.525
AISAT 03 Dec 12:53:02 12:56:10 19° 290° (WNW) 12:59:19 437.250
AO-7 03 Dec 13:00:39 13:05:13 16° 57° (ENE) 13:09:49 29.400- 29.500
ITUPSAT 1 03 Dec 13:19:57 13:21:10 11° 93° (E) 13:22:23 437.325
Gurwin Techsat 1B 03 Dec 13:25:00 13:30:18 70° 258° (WSW) 13:35:37 435.225
SRMSAT 03 Dec 13:36:21 13:40:10 18° 165° (SSE) 13:43:58 437.500
BEESAT 3 03 Dec 13:49:12 13:51:05 13° 53° (NE) 13:52:57 437.485
JUGNU 03 Dec 13:50:48 13:55:53 29° 179° (S) 14:00:54 437.505
Oscar 19 03 Dec 13:55:59 13:58:57 15° 266° (W) 14:01:55 437.125/150
Cosmos 2499 03 Dec 14:05:14 14:08:55 14° 281° (W) 14:12:32 435.465 / 435.565
BEESAT 2 03 Dec 14:12:48 14:13:33 10° 51° (NE) 14:14:17 435.950
ITAMSAT 1 03 Dec 14:15:04 14:20:17 78° 76° (ENE) 14:25:31 435.822/435.867
GONETS M04 03 Dec 14:20:28 14:23:49 13° 280° (W) 14:27:13
AUBIESAT-1 03 Dec 14:23:12 14:27:46 67° 106° (ESE) 14:32:06 437.475
TISAT 1 03 Dec 14:23:14 14:25:58 17° 290° (WNW) 14:28:43 437.305
SWISSCUBE 03 Dec 14:24:28 14:29:14 79° 102° (ESE) 14:33:58 437.505
MOZHAYETS 4 03 Dec 14:26:13 14:28:29 14° 94° (E) 14:30:44
BEESAT 03 Dec 14:28:51 14:33:37 78° 103° (ESE) 14:38:21 436.000
M-CUBED/EXP-1 PRIME 03 Dec 14:32:46 14:37:26 74° 288° (WNW) 14:41:54 437.505
AO-7 03 Dec 14:48:34 14:56:51 90° 251° (WSW) 15:05:13 29.400- 29.500
ITUPSAT 1 03 Dec 14:54:35 14:59:13 54° 286° (WNW) 15:03:50 437.325
ISS 03 Dec 15:06:11 15:07:10 11° 125° (SE) 15:08:08 145.825
KKS-1 03 Dec 15:17:09 15:20:32 21° 96° (E) 15:23:54 437.445
BRITE-PL 03 Dec 15:21:17 15:22:34 11° 67° (ENE) 15:23:53 437.365/2234.400
SRMSAT 03 Dec 15:23:53 15:28:47 27° 174° (S) 15:33:41 437.500
BEESAT 3 03 Dec 15:25:07 15:28:52 40° 247° (WSW) 15:32:34 437.485
HORYU 2 03 Dec 15:26:05 15:27:50 12° 67° (ENE) 15:29:36 437.375
STARS 03 Dec 15:32:35 15:34:37 13° 94° (E) 15:36:39 437.465
